This is the latest recevied weather packets stored in our database for station/object KC0FGX-1. If no packets are shown the sender has not sent any weather packets the latest 1 day(s).
| Time | Temp. | Humidity | Pressure | Rain* | Wind** | Luminosity | Snow |
|---|---|---|---|---|---|---|---|
| 1778104190 | 13.89° C | 37% | 1015.3 hPa | 0 mm | - | - | - |
| 1778103190 | 13.89° C | 40% | 1015.2 hPa | 0 mm | - | - | - |
| 1778100190 | 13.33° C | 40% | 1015.5 hPa | 0 mm | - | - | - |
| 1778099190 | 13.33° C | 39% | 1015.8 hPa | 0 mm | - | - | - |
| 1778098190 | 12.78° C | 38% | 1015.8 hPa | 0 mm | - | - | - |
| 1778097190 | 13.89° C | 41% | 1016 hPa | 0 mm | - | - | - |
| 1778096190 | 13.33° C | 44% | 1015.9 hPa | 0 mm | - | - | - |
| 1778092190 | 12.22° C | 41% | 1016.2 hPa | 0 mm | - | - | - |
| 1778091190 | 12.78° C | 44% | 1016.3 hPa | 0 mm | - | - | - |
| 1778090190 | 12.22° C | 40% | 1016.3 hPa | 0 mm | - | - | - |
| 1778088190 | 12.22° C | 41% | 1016.6 hPa | 0 mm | - | - | - |
| 1778084190 | 11.11° C | 46% | 1016.4 hPa | 0 mm | - | - | - |
| 1778080191 | 10° C | 50% | 1016 hPa | 0 mm | - | - | - |
| 1778079190 | 10° C | 54% | 1016 hPa | 0 mm | - | - | - |
| 1778078190 | 10° C | 51% | 1015.7 hPa | 0 mm | - | - | - |
| 1778075190 | 8.89° C | 55% | 1015.3 hPa | 0 mm | - | - | - |
| 1778074191 | 8.33° C | 58% | 1015.1 hPa | 0 mm | - | - | - |
| 1778073190 | 7.78° C | 62% | 1014.9 hPa | 0 mm | - | - | - |
| 1778072190 | 7.22° C | 65% | 1014.9 hPa | 0 mm | - | - | - |
| 1778071190 | 6.67° C | 66% | 1014.9 hPa | 0 mm | - | - | - |
| 1778069190 | 6.67° C | 70% | 1014.6 hPa | 0 mm | - | - | - |
| 1778066190 | 6.67° C | 69% | 1013.6 hPa | 0 mm | - | - | - |
| 1778065190 | 6.67° C | 66% | 1013.1 hPa | 0 mm | - | - | - |
| 1778063190 | 7.22° C | 63% | 1013 hPa | 0 mm | - | - | - |
| 1778058190 | 7.78° C | 63% | 1012.1 hPa | 0 mm | - | - | - |
* Rain latest hour (hover to see other rain measurements)
** Current wind speed in m/s (hover to see current wind gust speed)